星链-34942 (STARLINK-34942)

导读

STARLINK-34942是美国SpaceX公司星链(Starlink)低轨通信星座的成员,于2025年8月14日发射。作为量产型低轨通信卫星,它搭载Ku、Ka波段通信载荷,采用光学星间链路与自主避撞技术,以氪基霍尔推进器实现轨道维持和离轨。该卫星旨在为全球提供宽带互联网接入服务,设计寿命5-7年,退役后将主动坠入大气层烧毁,降低空间碎片风险。

基本信息
目录编号:
65181
目录名称:
STARLINK-34942
国际标识:
2025-175H
轨道中心:
EARTH
卫星名称:
星链-34942
卫星全名:
星链-34942 (STARLINK-34942)
卫星状态:
在轨 (已飞行303 天)
发射日期:
2025-08-14 UTC
国别 :
美国 (US)
星等 :
--
轨道信息
数据来源 国际轨道数据 AOE轨道数据
星历时间 2026-06-13T13:31:47+0800
10小时前
查看轨道信息
2026-06-12T00:00:00+0800
2天前
查看轨道信息
半长轴 6927.556km 6927.625km
偏心率 0.0001835 0.0002123
轨道倾角 97.366° 97.379°
近地点辐角 93.856° 84.585°
升交点赤经 35.918° 34.424°
平近点角 266.287° 84.679°
近地点 548.147km 548.017km
远地点 550.691km 550.959km
周期 95.638分钟 95.639分钟
每日圈数 15.056801 15.056578
详细信息
固有亮度:
5
最大亮度:
2.5
卫星平台:
Starlink V1.0
覆盖范围:
全球
运营商:
太空探索技术公司
运营商所在国:
美国
制造商(研发单位):
太空探索技术公司
制造商所在国:
美国
使用方式:
暂无
卫星简介
Starlink 计划是 SpaceX 推出的全球卫星互联网项目,通过发射低轨道卫星,为全球尤其是偏远地区提供高速、低延迟的互联网服务。自 2019 年起,Starlink 已部署数千颗卫星,旨在缩小全球数字鸿沟,推动互联网普及。该项目还为军事、航空等行业提供通信支持,带来广泛经济效益。
2D轨道图
3D轨道图
轨道高度分析图
轨道倾角分析图
轨道综合分析图
查看轨道综合分析图